When you browse on this site, cookies collect data to enhance your experience and personalize the content and advertising you see.
Visit our Privacy Policy to learn more. By continuing to use the site, you agree to this use of cookies and data.
EN

Hourly Weather Linz

Today, 5 July, Sunday

Time Temperature Precipitation Wind Pressure Humidity
00:00 +16°C° 0 mm 1 mps 736 mmHg 88%
01:00 +16°C° 0 mm 1 mps 736 mmHg 89%
02:00 +16°C° 0 mm 1 mps 736 mmHg 89%
03:00 +16°C° 0 mm 1 mps 736 mmHg 90%
04:00 +16°C° 0 mm 1 mps 736 mmHg 91%
05:00 +18°C° 0 mm 1 mps 736 mmHg 87%
06:00 +18°C° 0 mm 2 mps 736 mmHg 84%
07:00 +20°C° 0 mm 2 mps 736 mmHg 79%
08:00 +22°C° 0 mm 3 mps 736 mmHg 73%
09:00 +24°C° 0 mm 3 mps 736 mmHg 67%
10:00 +26°C° 0 mm 4 mps 736 mmHg 61%
11:00 +26°C° 0 mm 4 mps 735 mmHg 60%
12:00 +27°C° 0 mm 4 mps 735 mmHg 58%
13:00 +28°C° 0 mm 4 mps 735 mmHg 56%
14:00 +28°C° 0 mm 4 mps 735 mmHg 59%
15:00 +27°C° 0 mm 3 mps 734 mmHg 62%
16:00 +27°C° 0 mm 3 mps 734 mmHg 65%
17:00 +26°C° 0 mm 2 mps 734 mmHg 71%
18:00 +25°C° 0 mm 1 mps 734 mmHg 78%
19:00 +24°C° 0 mm 1 mps 733 mmHg 84%
20:00 +24°C° 0 mm 1 mps 734 mmHg 85%
21:00 +23°C° 0 mm 1 mps 734 mmHg 87%
22:00 +22°C° 0 mm 1 mps 734 mmHg 89%
23:00 +21°C° 0 mm 1 mps 734 mmHg 90%

Tomorrow, 6 July, Monday

Time Temperature Precipitation Wind Pressure Humidity
00:00 +21°C° 0 mm 1 mps 734 mmHg 91%
01:00 +20°C° 0 mm 1 mps 734 mmHg 92%
02:00 +20°C° 0 mm 1 mps 733 mmHg 93%
03:00 +19°C° 0 mm 2 mps 733 mmHg 95%
04:00 +18°C° 0 mm 2 mps 733 mmHg 96%
05:00 +19°C° 0.1 mm 2 mps 733 mmHg 94%
06:00 +20°C° 0.1 mm 2 mps 732 mmHg 92%
07:00 +20°C° 0.1 mm 2 mps 732 mmHg 90%
08:00 +21°C° 0.2 mm 3 mps 732 mmHg 84%
09:00 +23°C° 0.2 mm 4 mps 732 mmHg 77%
10:00 +25°C° 0.2 mm 5 mps 732 mmHg 71%
11:00 +23°C° 0.2 mm 5 mps 732 mmHg 72%
12:00 +23°C° 0.2 mm 6 mps 732 mmHg 73%
13:00 +23°C° 0.2 mm 6 mps 732 mmHg 74%
14:00 +21°C° 0.2 mm 6 mps 732 mmHg 75%
15:00 +20°C° 0.2 mm 5 mps 732 mmHg 76%
16:00 +17°C° 0.2 mm 5 mps 731 mmHg 78%
17:00 +17°C° 0.3 mm 4 mps 732 mmHg 81%
18:00 +17°C° 0.3 mm 4 mps 732 mmHg 84%
19:00 +16°C° 0.3 mm 3 mps 733 mmHg 87%
20:00 +14°C° 0.5 mm 3 mps 734 mmHg 86%
21:00 +14°C° 0.5 mm 3 mps 735 mmHg 85%
22:00 +13°C° 0.5 mm 3 mps 735 mmHg 83%
23:00 +13°C° 0.2 mm 3 mps 736 mmHg 85%

Day after tomorrow, 7 July, Tuesday

Time Temperature Precipitation Wind Pressure Humidity
00:00 +12°C° 0.2 mm 3 mps 736 mmHg 87%
01:00 +11°C° 0.2 mm 3 mps 736 mmHg 90%
02:00 +11°C° 0.2 mm 3 mps 736 mmHg 91%
03:00 +11°C° 0.2 mm 3 mps 736 mmHg 93%
04:00 +10°C° 0.2 mm 3 mps 736 mmHg 95%
05:00 +11°C° 0.1 mm 3 mps 736 mmHg 93%
06:00 +12°C° 0.1 mm 3 mps 736 mmHg 91%
07:00 +13°C° 0.1 mm 3 mps 736 mmHg 89%
08:00 +14°C° 0.1 mm 4 mps 736 mmHg 81%
09:00 +17°C° 0.1 mm 4 mps 736 mmHg 72%
10:00 +17°C° 0.1 mm 5 mps 736 mmHg 64%
11:00 +19°C° 0 mm 5 mps 736 mmHg 60%
12:00 +20°C° 0 mm 4 mps 736 mmHg 57%
13:00 +20°C° 0 mm 4 mps 736 mmHg 54%
14:00 +20°C° 0 mm 4 mps 735 mmHg 54%
15:00 +21°C° 0 mm 3 mps 735 mmHg 55%
16:00 +21°C° 0 mm 3 mps 735 mmHg 56%
17:00 +20°C° 0 mm 2 mps 735 mmHg 62%
18:00 +19°C° 0 mm 2 mps 735 mmHg 69%
19:00 +19°C° 0 mm 1 mps 735 mmHg 75%
20:00 +16°C° 0 mm 1 mps 736 mmHg 78%
21:00 +14°C° 0 mm 1 mps 736 mmHg 81%
22:00 +13°C° 0 mm 1 mps 736 mmHg 84%
23:00 +12°C° 0 mm 1 mps 736 mmHg 86%

8 July, Wednesday

Time Temperature Precipitation Wind Pressure Humidity
00:00 +12°C° 0 mm 1 mps 736 mmHg 87%
01:00 +10°C° 0 mm 0 mps 736 mmHg 89%
02:00 +10°C° 0 mm 0 mps 736 mmHg 89%
03:00 +10°C° 0 mm 0 mps 736 mmHg 90%
04:00 +9°C° 0 mm 0 mps 735 mmHg 91%
05:00 +11°C° 0 mm 0 mps 735 mmHg 86%
06:00 +13°C° 0 mm 0 mps 736 mmHg 81%
07:00 +15°C° 0 mm 0 mps 736 mmHg 77%
08:00 +16°C° 0 mm 0 mps 735 mmHg 71%
09:00 +20°C° 0 mm 1 mps 735 mmHg 66%
10:00 +22°C° 0 mm 1 mps 735 mmHg 61%
11:00 +23°C° 0 mm 2 mps 735 mmHg 57%
12:00 +24°C° 0 mm 2 mps 735 mmHg 53%
13:00 +25°C° 0 mm 2 mps 734 mmHg 50%
14:00 +25°C° 0 mm 2 mps 734 mmHg 50%
15:00 +25°C° 0 mm 2 mps 734 mmHg 51%
16:00 +26°C° 0 mm 2 mps 734 mmHg 52%
17:00 +24°C° 0 mm 2 mps 734 mmHg 59%
18:00 +23°C° 0 mm 1 mps 734 mmHg 66%
19:00 +22°C° 0 mm 1 mps 735 mmHg 74%
20:00 +20°C° 0 mm 1 mps 735 mmHg 77%
21:00 +19°C° 0 mm 1 mps 735 mmHg 80%
22:00 +18°C° 0 mm 1 mps 735 mmHg 83%
23:00 +16°C° 0 mm 1 mps 735 mmHg 85%

9 July, Thursday

Time Temperature Precipitation Wind Pressure Humidity
00:00 +16°C° 0 mm 1 mps 735 mmHg 86%
01:00 +15°C° 0 mm 1 mps 735 mmHg 87%
02:00 +14°C° 0 mm 0 mps 735 mmHg 88%
03:00 +14°C° 0 mm 0 mps 735 mmHg 88%
04:00 +13°C° 0 mm 0 mps 735 mmHg 89%
05:00 +15°C° 0 mm 0 mps 735 mmHg 85%
06:00 +16°C° 0 mm 0 mps 736 mmHg 81%
07:00 +18°C° 0 mm 0 mps 736 mmHg 78%
08:00 +21°C° 0 mm 1 mps 736 mmHg 73%
09:00 +23°C° 0 mm 1 mps 736 mmHg 69%
10:00 +24°C° 0 mm 2 mps 736 mmHg 64%
11:00 +25°C° 0 mm 2 mps 736 mmHg 62%
12:00 +26°C° 0 mm 2 mps 735 mmHg 60%
13:00 +27°C° 0 mm 2 mps 735 mmHg 58%
14:00 +27°C° 0 mm 2 mps 735 mmHg 58%
15:00 +27°C° 0 mm 2 mps 735 mmHg 58%
16:00 +27°C° 0 mm 2 mps 735 mmHg 59%
17:00 +26°C° 0 mm 2 mps 735 mmHg 65%
18:00 +25°C° 0 mm 1 mps 735 mmHg 72%
19:00 +23°C° 0 mm 1 mps 735 mmHg 78%
20:00 +22°C° 0 mm 1 mps 735 mmHg 81%
21:00 +20°C° 0 mm 1 mps 735 mmHg 85%
22:00 +19°C° 0 mm 1 mps 735 mmHg 88%
23:00 +17°C° 0 mm 0 mps 735 mmHg 89%

10 July, Friday

Time Temperature Precipitation Wind Pressure Humidity
00:00 +16°C° 0 mm 0 mps 735 mmHg 89%
01:00 +16°C° 0 mm 0 mps 735 mmHg 90%
02:00 +16°C° 0 mm 0 mps 735 mmHg 91%
03:00 +16°C° 0 mm 1 mps 734 mmHg 92%
04:00 +16°C° 0 mm 1 mps 734 mmHg 93%
05:00 +18°C° 0 mm 1 mps 734 mmHg 90%
06:00 +20°C° 0 mm 1 mps 734 mmHg 86%
07:00 +21°C° 0 mm 1 mps 734 mmHg 83%
08:00 +23°C° 0 mm 1 mps 734 mmHg 77%
09:00 +25°C° 0 mm 1 mps 733 mmHg 72%
10:00 +26°C° 0 mm 2 mps 733 mmHg 66%
11:00 +28°C° 0 mm 2 mps 733 mmHg 63%
12:00 +29°C° 0 mm 1 mps 732 mmHg 60%
13:00 +30°C° 0 mm 1 mps 732 mmHg 56%
14:00 +30°C° 0.2 mm 1 mps 732 mmHg 56%
15:00 +30°C° 0.2 mm 1 mps 732 mmHg 56%
16:00 +30°C° 0.2 mm 1 mps 731 mmHg 56%
17:00 +29°C° 0.3 mm 1 mps 731 mmHg 62%
18:00 +27°C° 0.3 mm 1 mps 731 mmHg 68%
19:00 +26°C° 0.3 mm 1 mps 731 mmHg 74%
20:00 +24°C° 0.5 mm 2 mps 732 mmHg 77%
21:00 +21°C° 0.5 mm 2 mps 732 mmHg 79%
22:00 +19°C° 0.5 mm 3 mps 733 mmHg 82%
23:00 +19°C° 0.1 mm 2 mps 733 mmHg 82%
Show more